Location: Newark
(46.7000°N, 60.6000°W)
Time: 22:55:24
(UTC+00:00)

Vanguard 1 - Pass Details

Date: 31 October 2020
Orbit: 650 x 3833 km, 34.2° (Epoch: 23 November)

Event Time Altitude Azimuth Distance (km) Brightness Sun altitude
Rises 21:54:04 0° 280° (W) 7,932 16.2 -11.9°
Reaches altitude 10° 22:00:43 10° 272° (W) 6,708 15.7 -13.0°
Maximum altitude 22:16:58 30° 222° (SW) 4,201 13.7 -15.8°
Drops below altitude 10° 22:28:02 10° 167° (SSE) 4,525 13.3 -17.6°
Sets 22:31:30 0° 156° (SSE) 5,111 13.5 -18.2°
